OZ1IEP-5 Weather Reports


Display with metric or nautical units.
time (UTC)temp
F
wind
direction
speed
MPH
gust
MPH
rain 1hr
in
rain 24hr
in
rain mn
in
humidity
%
barometer
mb
20260901193009 62 225 0.0 0.0 0.00 0.02 0.02 88 1012.5
20260901192006 63 243 0.0 0.0 0.00 0.02 0.02 88 1012.5
20260901191006 63 257 0.0 0.0 0.00 0.02 0.02 87 1012.5
20260901190020 63 237 0.0 2.0 0.00 0.02 0.02 87 1012.4
20260901185005 63 223 0.0 6.0 0.00 0.02 0.02 86 1012.3
20260901184005 63 243 0.0 5.0 0.00 0.02 0.02 85 1012.1
20260901183009 63 216 0.0 3.0 0.00 0.02 0.02 84 1012.0
20260901182006 64 228 0.0 9.0 0.00 0.02 0.02 83 1011.9
20260901181005 64 238 0.0 5.0 0.00 0.02 0.02 82 1011.9
20260901180008 64 221 0.0 3.0 0.00 0.02 0.02 81 1011.8
20260901175006 64 228 0.0 3.0 0.00 0.02 0.02 82 1011.8
20260901174007 65 234 0.0 2.0 0.00 0.02 0.02 82 1011.6
20260901173008 65 217 0.0 1.0 0.00 0.02 0.02 82 1011.5
20260901172006 65 226 0.0 3.0 0.00 0.02 0.02 81 1011.5
20260901171006 65 249 0.0 2.0 0.00 0.02 0.02 80 1011.5
20260901170008 66 217 0.0 3.0 0.00 0.02 0.02 79 1011.4
20260901165006 66 235 0.0 3.0 0.00 0.02 0.02 80 1011.4
20260901164005 66 224 0.0 2.0 0.00 0.02 0.02 80 1011.4
20260901163008 67 243 0.0 3.0 0.00 0.02 0.02 79 1011.4
20260901162005 67 238 0.0 3.0 0.00 0.02 0.02 80 1011.3
20260901161005 67 238 0.0 6.0 0.00 0.02 0.02 82 1011.3
20260901160008 66 227 0.0 7.0 0.00 0.02 0.02 82 1011.2
20260901155006 66 233 0.0 7.0 0.00 0.02 0.02 80 1011.1
20260901154005 66 249 0.0 7.0 0.00 0.02 0.02 78 1011.1
20260901153008 66 220 0.0 9.0 0.00 0.03 0.02 78 1011.0
20260901152006 67 190 0.0 5.0 0.00 0.07 0.02 78 1010.9
20260901151005 67 228 0.0 6.0 0.00 0.08 0.02 78 1010.9
20260901150008 68 211 0.0 6.0 0.00 0.09 0.02 79 1010.9
20260901145005 68 234 1.0 6.0 0.00 0.12 0.02 77 1010.9
20260901144005 69 228 0.0 9.0 0.00 0.12 0.02 78 1010.9
20260901143008 69 225 0.0 1.0 0.00 0.12 0.02 77 1010.9
20260901142006 69 239 0.0 5.0 0.00 0.12 0.02 76 1010.9
20260901141006 69 281 0.0 5.0 0.00 0.12 0.02 77 1010.9
20260901140008 69 305 0.0 3.0 0.00 0.12 0.02 77 1010.9
20260901135006 68 264 0.0 7.0 0.00 0.12 0.02 78 1010.9
20260901134005 68 283 0.0 3.0 0.00 0.12 0.02 77 1010.9
20260901133008 69 285 0.0 3.0 0.00 0.12 0.02 77 1010.9
20260901132006 68 313 0.0 3.0 0.00 0.12 0.02 79 1010.9
20260901131006 68 267 0.0 2.0 0.00 0.12 0.02 80 1010.9
20260901130008 68 292 0.0 1.0 0.00 0.12 0.02 79 1010.9
20260901125005 68 294 0.0 3.0 0.00 0.12 0.02 81 1010.9
20260901124006 67 230 0.0 0.0 0.00 0.12 0.02 82 1010.8
20260901123008 67 282 0.0 5.0 0.00 0.12 0.02 82 1010.7
20260901122006 67 308 1.0 6.0 0.00 0.12 0.02 82 1010.7
20260901121006 67 302 1.0 7.0 0.00 0.12 0.02 82 1010.8
20260901120009 67 295 1.0 6.0 0.00 0.12 0.02 83 1010.9
20260901115006 67 302 0.0 5.0 0.00 0.12 0.02 84 1010.9
20260901114005 67 275 0.0 5.0 0.00 0.12 0.02 84 1010.9
20260901113008 67 308 1.0 5.0 0.00 0.12 0.02 84 1010.8
20260901112005 66 301 0.0 6.0 0.00 0.12 0.02 86 1010.7
20260901111006 66 279 0.0 5.0 0.00 0.12 0.02 86 1010.7
20260901110009 65 298 0.0 1.0 0.00 0.12 0.02 86 1010.7
20260901105005 65 288 0.0 3.0 0.00 0.12 0.02 85 1010.6
20260901104006 66 287 0.0 5.0 0.00 0.13 0.02 86 1010.5
20260901103008 66 254 0.0 3.0 0.01 0.13 0.02 87 1010.4
20260901102005 65 275 0.0 3.0 0.01 0.13 0.02 86 1010.4
20260901101006 66 227 0.0 1.0 0.01 0.13 0.02 87 1010.4
20260901100008 65 239 0.0 1.0 0.01 0.14 0.02 87 1010.3
20260901095006 65 272 0.0 0.0 0.01 0.16 0.02 87 1010.2
20260901094005 65 279 0.0 1.0 0.01 0.25 0.02 88 1010.2
20260901093009 65 223 0.0 5.0 0.00 0.25 0.02 89 1010.0
20260901092006 65 282 0.0 6.0 0.00 0.25 0.02 90 1009.9
20260901091006 64 237 1.0 6.0 0.00 0.25 0.02 91 1009.8
20260901090009 64 220 0.0 7.0 0.00 0.25 0.02 92 1009.8
20260901085006 64 287 0.0 1.0 0.00 0.25 0.02 92 1009.8
20260901084006 64 285 0.0 5.0 0.00 0.25 0.02 93 1009.8
20260901083008 63 264 0.0 7.0 0.00 0.25 0.02 93 1009.5
20260901082006 62 306 2.0 7.0 0.00 0.25 0.02 93 1009.4
20260901081006 63 247 0.0 6.0 0.00 0.25 0.02 93 1009.3
20260901080008 62 301 5.0 12.0 0.00 0.25 0.02 93 1009.3
20260901075007 62 222 0.0 6.0 0.00 0.25 0.02 94 1009.1
20260901074005 62 278 1.0 7.0 0.00 0.25 0.02 94 1008.9
20260901073008 62 308 0.0 5.0 0.00 0.26 0.02 94 1008.9
20260901072006 61 297 0.0 3.0 0.00 0.27 0.02 94 1008.8
20260901071006 61 300 0.0 8.0 0.00 0.28 0.02 94 1008.8
20260901070008 61 274 0.0 7.0 0.00 0.28 0.02 94 1008.7
20260901065006 61 247 1.0 6.0 0.00 0.28 0.02 94 1008.7
20260901064006 61 240 0.0 3.0 0.00 0.28 0.02 94 1008.6
20260901063008 61 309 0.0 3.0 0.00 0.28 0.02 94 1008.5
20260901062006 60 299 1.0 5.0 0.00 0.28 0.02 94 1008.3
20260901061006 60 302 1.0 9.0 0.00 0.28 0.02 94 1008.3
20260901060008 60 301 1.0 5.0 0.00 0.28 0.02 94 1008.3
20260901055006 60 301 2.0 7.0 0.00 0.28 0.02 94 1008.2
20260901054006 60 298 1.0 6.0 0.00 0.28 0.02 94 1008.2
20260901053009 59 301 1.0 6.0 0.00 0.28 0.02 94 1008.1
20260901052006 59 312 1.0 6.0 0.00 0.28 0.02 94 1007.9
20260901051006 59 281 0.0 3.0 0.00 0.28 0.02 94 1007.8
20260901050008 59 294 0.0 2.0 0.00 0.28 0.02 94 1007.8
20260901045006 59 292 0.0 0.0 0.00 0.28 0.02 94 1007.7
20260901044006 59 255 0.0 0.0 0.00 0.28 0.02 94 1007.7
20260901043008 59 231 0.0 1.0 0.00 0.28 0.02 94 1007.6
20260901042006 59 219 0.0 0.0 0.00 0.28 0.02 94 1007.5
20260901041007 58 228 0.0 0.0 0.00 0.28 0.02 94 1007.5
20260901040009 58 216 0.0 0.0 0.00 0.28 0.02 94 1007.5
20260901035006 58 237 0.0 0.0 0.02 0.28 0.02 94 1007.4
20260901034007 58 212 0.0 0.0 0.02 0.28 0.02 94 1007.3
20260901033009 59 210 0.0 0.0 0.02 0.28 0.02 94 1007.3
20260901032007 58 217 0.0 0.0 0.02 0.28 0.02 94 1007.2
20260901031006 58 224 0.0 0.0 0.02 0.28 0.02 94 1007.2
20260901030008 58 222 0.0 1.0 0.02 0.28 0.02 94 1007.2
20260901025006 58 222 0.0 1.0 0.00 0.26 0.00 94 1007.1
20260901024006 57 250 0.0 0.0 0.00 0.26 0.00 94 1007.1
20260901023008 57 219 0.0 2.0 0.00 0.26 0.00 94 1007.0
20260901022006 57 203 0.0 0.0 0.00 0.26 0.00 93 1007.0
20260901021006 57 206 0.0 1.0 0.00 0.26 0.00 93 1006.9
20260901020008 57 196 0.0 0.0 0.00 0.26 0.00 93 1006.9
20260901015006 57 181 0.0 0.0 0.00 0.26 0.00 93 1006.8
20260901014006 57 198 0.0 0.0 0.00 0.26 0.00 93 1006.7
20260901013009 57 191 0.0 0.0 0.00 0.26 0.00 93 1006.7
20260901012006 57 208 0.0 0.0 0.00 0.26 0.00 93 1006.7
20260901011006 57 194 0.0 0.0 0.00 0.26 0.00 93 1006.7
20260901010008 57 201 0.0 0.0 0.00 0.26 0.00 93 1006.7
20260901005006 57 198 0.0 0.0 0.00 0.26 0.00 93 1006.7
20260901004006 57 169 0.0 1.0 0.00 0.26 0.00 93 1006.7
20260901003009 57 197 0.0 0.0 0.00 0.26 0.00 93 1006.7
20260901002006 57 205 0.0 0.0 0.00 0.26 0.00 93 1006.7
20260901001006 57 214 0.0 0.0 0.00 0.26 0.00 93 1006.6
20260901000008 57 198 0.0 0.0 0.00 0.26 0.00 93 1006.6
20260831235006 58 184 0.0 0.0 0.00 0.26 0.00 93 1006.6
20260831234006 57 165 0.0 1.0 0.00 0.26 0.00 93 1006.5
20260831233008 58 221 0.0 0.0 0.00 0.26 0.00 93 1006.5
20260831232006 58 199 0.0 0.0 0.00 0.26 0.00 93 1006.5
20260831231006 58 197 0.0 0.0 0.00 0.26 0.00 93 1006.6
20260831230009 58 188 0.0 0.0 0.00 0.26 0.00 93 1006.6
20260831225006 59 165 0.0 0.0 0.00 0.26 0.00 93 1006.6
20260831224005 59 163 0.0 0.0 0.00 0.26 0.00 93 1006.6
20260831223008 59 193 0.0 1.0 0.00 0.26 0.00 93 1006.6
20260831222006 59 176 0.0 2.0 0.00 0.26 0.00 93 1006.6
20260831221010 59 184 0.0 0.0 0.00 0.26 0.00 93 1006.6
20260831220008 59 174 0.0 0.0 0.00 0.26 0.00 93 1006.6
20260831215006 59 184 0.0 0.0 0.00 0.26 0.26 93 1006.6
20260831214007 59 200 0.0 0.0 0.00 0.26 0.26 93 1006.6
20260831213009 60 209 0.0 0.0 0.00 0.26 0.26 92 1006.4
20260831212006 60 183 0.0 0.0 0.00 0.26 0.26 92 1006.3
20260831211006 59 170 0.0 0.0 0.00 0.26 0.26 92 1006.4
20260831210008 59 168 0.0 0.0 0.00 0.26 0.26 92 1006.2
20260831205005 59 171 0.0 1.0 0.00 0.26 0.26 92 1006.2
20260831204006 59 167 0.0 0.0 0.00 0.26 0.26 92 1006.1
20260831203009 59 168 0.0 0.0 0.00 0.26 0.26 92 1006.1
20260831202006 59 169 0.0 0.0 0.00 0.26 0.26 92 1006.1
20260831201005 59 171 0.0 0.0 0.00 0.26 0.26 92 1006.0
20260831200008 59 170 0.0 0.0 0.00 0.26 0.26 92 1006.0
20260831195006 59 165 0.0 0.0 0.00 0.26 0.26 92 1006.1
20260831194006 60 168 0.0 0.0 0.00 0.26 0.26 92 1006.1